Tracking 31027 objects as of 19-Jul-2025
HD Live streaming from Space Station
objects crossing your sky now

COSMOS 249 DEB

Track COSMOS 249 DEB now!
10-day predictions


NORAD ID: 6764
Int'l Code: 1968-091CK
Perigee: 932.9 km
Apogee: 2,110.9 km
Inclination: 62.4 °
Period: 116.3 minutes
Semi major axis: 7892 km
RCS: 0.0142 m2 (small)
Launch date: October 20, 1968
Source: Commonwealth of Independent States (former USSR) (CIS)
Launch site: TYURATAM MISSILE AND SPACE COMPLEX (TTMTR)

Note: This is SATELLITE DEBRIS
Your satellite tracking list
IRIDIUM 135
Track 1 satellite(s)




NASA's NSSDC Master Catalog

Two Line Element Set (TLE):
1 06764U 68091CK  25198.67100770  .00000586  00000-0  19231-2 0  9997
2 06764  62.3513  81.4309 0746266 294.5604  85.4024 12.38080933683750
Source of the keplerian elements: AFSPC